Temperature
16 16 16 15 15 15 15 15 15 15 16 16 16 15 15 15 15 15 15 15 15 15 15 15 15 15 15 15 15 15 15 15 15 15 15 15 15 15 15 15 15 15 15
16 16 15 15 15 15 15 15 15 15 15 15 15 15 15 15 15 15 15 15 15 15 15 15 15 15 15 15 15 15 15 15 15 15 15 15 15 15 15 15 15 15 15
16 15 15 15 15 15 15 15 15 15 15 15 15 15 15 15 15 15 15 15 15 15 15 15 14 15 14 15 15 15 15 15 15 15 15 14 15 15 15 15 15 15 15
16 15 15 15 15 15 15 15 15 15 15 15 15 15 15 15 15 15 15 15 15 14 14 14 14 14 14 14 14 14 14 14 14 14 14 14 14 14 14 15 15 14 14
15 15 15 15 15 15 15 14 14 14 14 15 15 15 15 15 14 14 14 14 14 14 14 14 14 14 14 14 14 14 14 14 14 14 14 14 14 14 14 14 14 14 14
15 15 15 15 14 14 14 14 14 14 14 14 14 15 15 14 14 14 14 14 14 14 14 14 14 14 14 14 14 14 14 14 14 14 13 13 14 14 14 14 14 14 14
15 15 15 14 14 14 14 14 14 14 14 14 14 14 14 14 14 14 14 14 14 14 14 14 14 14 14 13 13 13 13 13 13 13 13 13 13 13 13 13 14 14 14
15 15 14 14 14 14 14 14 14 14 14 14 14 14 14 14 14 14 14 14 14 14 13 13 13 13 13 13 13 13 13 13 13 13 13 13 13 13 13 13 13 13 14
15 14 14 14 14 14 14 14 14 14 14 14 14 14 14 14 14 14 14 14 14 14 13 13 13 13 13 13 13 13 13 13 13 13 13 13 13 13 13 13 13 13 13
14 14 14 14 14 14 14 14 13 13 14 13 14 14 14 14 14 13 13 13 13 13 13 13 13 13 13 13 13 13 13 13 13 13 13 13 13 13 13 13 13 13 13
14 14 14 14 14 14 14 13 13 13 13 13 13 13 14 14 14 13 13 13 13 13 13 13 13 13 13 13 13 13 13 13 13 13 13 13 13 13 13 13 13 13 13
14 14 14 14 14 14 13 13 13 13 13 13 13 13 13 13 13 13 13 13 13 13 13 13 13 13 13 13 13 13 13 13 13 13 13 13 13 13 13 13 13 13 13
14 14 14 14 14 14 13 13 13 13 13 13 13 13 13 13 13 13 13 13 13 13 13 13 13 13 12 12 12 12 13 13 12 12 12 12 13 13 13 12 12 13 13
14 14 14 14 14 13 13 13 13 13 13 13 13 13 13 13 13 13 13 13 13 12 12 12 12 12 12 12 12 12 12 12 12 12 12 12 12 12 12 12 12 12 12
14 14 14 14 14 13 13 13 13 13 13 13 13 13 13 13 12 13 13 13 13 12 12 12 12 12 12 12 12 12 12 12 12 12 12 12 12 12 12 12 12 12 12
14 14 13 13 13 13 13 13 13 13 13 13 13 13 13 12 12 12 12 12 12 12 12 12 12 12 12 12 12 12 12 12 12 12 12 12 12 12 12 12 12 12 12
14 14 13 13 13 13 13 13 13 13 13 12 12 12 12 12 12 12 12 12 12 12 12 12 12 11 12 11 11 11 11 11 11 11 11 11 11 11 11 12 11 12 12
13 13 13 13 13 13 13 13 13 13 12 12 12 12 12 12 12 12 12 12 12 12 12 12 11 11 11 11 11 11 11 11 11 11 11 11 11 11 11 11 11 11 11
13 13 13 13 13 13 13 13 12 12 12 12 12 12 12 12 12 12 12 12 12 11 11 11 11 11 11 11 11 11 10 10 10 10 10 10 10 10 10 11 11 11 11
13 13 13 13 13 13 12 12 12 12 12 12 12 12 12 12 12 12 12 11 11 11 11 11 11 11 10 10 10 10 10 10 10 10 10 10 10 10 10 10 10 10 10
13 13 12 12 12 12 12 12 12 12 12 12 12 12 12 12 12 11 11 11 11 11 11 11 10 10 10 10 10 10 10 10 10 10 10 10 10 10 10 10 10 10 10
12 12 12 12 12 12 12 12 12 12 12 11 11 11 11 11 11 11 11 11 11 11 10 10 10 10 10 10 10 10 9 9 9 9 9 9 9 9 9 9 9 9 9
12 12 12 11 11 11 11 11 11 11 11 11 11 11 11 11 11 11 11 11 10 10 10 10 10 10 10 10 10 9 9 9 9 9 9 9 9 9 9 9 9 9 9
12 11 11 11 11 11 11 11 11 11 11 10 10 10 10 10 10 10 10 10 10 10 10 10 10 10 9 9 9 9 9 9 9 9 9 9 9 9 9 9 9 9 9
11 11 11 11 11 10 10 10 10 10 10 10 10 10 10 10 10 10 10 10 10 10 9 9 9 9 9 9 9 9 9 8 8 8 8 8 8 8 8 8 8 8 8
11 10 10 10 10 10 10 10 10 10 10 9 9 9 9 9 9 9 9 9 9 9 9 9 9 9 9 9 9 9 8 8 8 8 8 8 8 8 7 8 8 8 8
Wind_Speed
4 4 4 5 5 4 4 4 5 6 7 7 8 8 8 8 9 9 10 12 12 12 11 10 11 10 10 10 10 10 10 9 9 9 9 10 10 10 10 10 11 11 10
4 4 4 5 5 5 5 5 5 5 5 6 7 7 7 7 8 8 9 10 12 12 12 11 10 10 10 10 10 10 10 9 9 9 8 9 9 9 9 9 9 9 9
5 4 4 4 4 5 6 6 6 5 4 5 5 5 5 6 6 7 8 8 9 11 12 12 11 11 11 11 11 10 9 9 9 9 9 9 9 9 8 8 8 8 8
8 5 4 4 5 5 4 4 4 4 4 4 4 4 4 4 5 5 6 7 7 8 9 11 11 10 10 11 11 11 10 9 9 9 9 9 8 8 8 7 7 7 7
7 6 4 3 5 4 4 4 4 3 3 3 3 3 3 3 3 4 5 6 7 8 8 9 10 10 10 11 10 10 10 10 9 9 9 9 8 7 7 7 7 7 7
7 5 3 4 5 4 4 4 4 3 2 2 2 3 2 2 3 4 4 4 5 6 7 7 8 8 10 10 10 10 9 9 9 8 8 7 7 6 7 7 7 6 6
5 4 4 4 4 3 3 3 3 3 2 2 2 2 2 2 3 3 3 3 4 5 7 7 7 7 7 8 8 8 8 7 7 7 7 7 7 6 6 6 6 6 6
5 4 4 3 4 3 3 4 3 2 2 2 1 1 1 2 3 2 2 3 3 4 4 6 7 7 7 7 6 8 7 6 6 5 5 5 5 5 5 4 4 5 5
4 4 4 3 3 2 2 2 2 3 2 3 2 2 2 1 1 2 2 2 3 3 2 4 6 7 7 7 6 6 7 6 5 4 4 3 4 4 4 4 4 4 4
3 4 3 3 2 3 2 1 2 1 2 2 3 3 1 1 1 1 2 2 2 2 2 3 4 5 6 7 7 6 6 6 5 4 3 3 3 3 4 4 4 4 4
2 3 2 1 2 2 1 2 3 2 2 1 1 2 2 2 1 2 1 0 1 1 2 2 3 4 6 7 7 6 5 5 5 4 3 3 3 3 3 3 3 3 3
1 2 2 1 1 1 1 2 2 1 1 1 1 1 1 1 1 1 1 1 0 0 1 2 3 4 5 6 6 6 6 5 5 5 5 4 3 3 3 3 3 2 2
1 1 1 0 0 1 1 2 1 1 1 1 0 1 1 1 1 1 1 0 0 0 1 1 2 4 4 5 6 6 6 5 4 4 4 4 3 3 3 2 2 1 2
2 1 2 1 1 0 1 2 1 1 1 1 0 0 1 1 1 1 1 1 1 1 1 0 1 3 4 5 6 6 5 4 4 5 5 4 4 3 3 2 2 2 1
1 1 1 1 2 1 1 2 1 1 1 0 1 1 1 0 1 1 0 1 2 0 1 0 1 0 3 6 6 5 4 3 4 4 5 5 4 4 3 3 3 2 2
1 1 1 2 1 2 1 1 1 0 1 1 1 0 0 1 1 0 1 0 1 1 1 0 0 1 3 4 5 4 4 3 4 4 4 4 4 4 3 3 3 3 3
1 1 1 1 2 2 2 2 1 0 1 1 1 1 0 0 1 0 0 0 0 1 1 1 1 1 2 3 3 3 4 4 4 4 3 3 3 3 3 3 3 3 3
1 1 2 1 1 1 1 2 2 1 1 1 2 2 2 1 1 0 0 0 1 1 2 2 1 1 1 2 3 2 3 3 3 3 3 3 3 2 2 2 2 3 3
1 1 1 1 1 1 1 1 2 1 2 2 1 1 1 1 1 1 1 0 1 1 2 2 1 1 1 1 2 1 1 1 2 2 2 2 2 2 2 2 2 2 3
1 1 1 1 1 1 1 1 0 1 1 1 1 1 1 1 1 1 1 1 1 1 1 1 1 1 1 1 2 1 1 1 0 1 2 2 2 2 1 1 1 1 1
1 1 1 1 1 1 1 1 0 1 1 2 1 2 1 2 2 1 1 1 1 2 2 1 1 0 0 1 1 1 1 0 0 1 1 1 2 1 1 1 1 0 0
2 2 1 1 1 1 1 1 1 1 2 1 1 1 2 2 2 3 3 2 2 2 2 2 1 2 2 2 2 1 2 1 1 1 1 0 1 1 2 2 2 2 2
2 1 1 1 1 2 2 0 1 1 1 1 0 0 1 1 2 2 1 1 1 0 2 3 2 2 2 2 2 2 2 2 2 2 2 1 0 1 1 2 3 3 3
2 2 2 2 2 2 2 1 2 2 2 1 1 1 1 1 1 1 2 1 1 0 1 1 2 2 1 2 3 3 3 2 1 1 2 1 1 1 1 3 5 4 4
2 2 2 3 2 2 3 2 1 2 2 1 1 0 1 1 2 2 1 1 1 1 1 1 1 0 1 1 2 2 1 2 1 2 1 2 1 1 1 2 3 4 4
2 2 2 2 3 2 3 3 2 2 2 1 0 0 1 1 2 1 1 1 1 1 0 0 0 1 1 0 2 2 3 2 2 2 2 2 1 1 1 1 1 2 2
Wind_Direction
64 66 65 64 68 67 61 49 55 54 54 55 62 67 66 73 81 84 89 87 87 85 87 96 98 97 95 93 90 86 86 87 86 83 81 79 75 72 70 69 71 72 75
72 63 62 61 57 54 56 59 61 60 57 57 58 62 64 68 81 89 94 89 86 85 84 86 93 94 92 90 90 88 84 81 81 81 84 85 83 78 74 73 75 75 75
83 76 61 61 57 54 51 50 52 60 68 66 58 58 67 67 70 84 92 95 90 85 85 86 86 87 87 84 83 81 80 80 81 82 81 81 81 79 77 74 77 78 79
77 71 66 62 62 58 57 49 44 46 54 57 55 48 59 69 74 82 89 95 97 93 88 85 86 87 86 84 80 76 75 77 79 80 79 78 78 79 78 77 77 79 81
74 75 69 66 65 58 51 55 50 45 50 53 65 65 52 52 61 74 82 87 89 101 105 93 88 82 85 83 79 75 74 72 71 72 75 73 71 76 77 78 79 82 85
69 74 74 65 64 61 57 56 56 50 48 45 58 77 84 76 66 60 66 79 85 96 107 104 98 86 81 80 80 78 75 72 69 67 68 68 69 72 76 78 80 85 86
71 76 69 64 63 61 64 67 59 45 39 44 52 53 57 84 97 84 67 69 70 79 88 96 103 100 92 78 77 79 76 73 69 67 64 67 70 73 78 80 81 83 81
67 80 85 80 74 58 45 52 50 26 17 38 61 66 55 27 43 88 96 80 70 76 76 83 93 94 95 95 80 75 74 69 68 68 66 69 72 73 76 80 82 85 84
68 63 79 85 98 91 77 59 53 46 17 3 34 66 91 79 25 17 78 89 89 84 76 79 87 90 94 93 92 76 69 62 62 69 69 71 76 79 80 80 84 93 91
84 71 68 88 108 103 107 108 84 51 50 15 5 14 55 126 126 40 15 54 88 100 97 87 85 91 92 92 91 81 71 62 57 62 74 81 83 80 85 87 89 92 95
95 93 74 65 83 97 103 77 77 53 57 50 21 5 4 352 26 130 126 53 33 66 97 97 94 91 95 93 93 87 83 72 63 60 67 72 75 82 85 86 86 88 97
98 98 97 81 88 117 124 109 108 99 75 50 11 27 31 20 3 69 112 143 116 349 78 96 92 91 93 92 93 86 86 77 69 62 60 62 66 72 80 80 80 91 110
113 147 111 114 87 148 141 124 133 144 141 115 14 8 4 0 38 49 77 66 91 156 80 89 109 107 108 106 101 91 86 80 71 62 60 56 57 66 65 63 58 85 130
155 176 168 164 153 137 117 123 131 195 147 144 155 86 33 6 27 58 93 83 43 19 95 157 110 113 119 118 113 102 86 82 81 72 66 60 58 63 65 50 38 54 116
179 190 181 182 167 163 142 121 146 221 143 156 148 114 104 60 30 14 42 131 132 121 281 248 55 125 114 111 122 112 101 93 91 85 77 71 68 64 62 50 41 53 69
199 197 206 201 176 160 157 138 161 211 137 132 103 53 74 123 87 5 328 6 104 140 207 224 167 173 124 117 126 117 108 92 95 97 90 81 74 70 64 59 52 56 78
204 214 234 190 173 166 168 149 155 143 200 209 194 168 196 106 119 167 321 349 34 116 151 245 150 123 108 105 109 120 110 112 115 112 102 94 81 76 75 74 64 60 76
198 235 234 190 185 166 165 154 181 195 210 249 229 185 196 169 142 154 117 234 205 170 159 186 194 126 130 140 128 128 126 125 126 119 112 105 100 89 93 95 84 74 73
196 244 229 172 173 171 194 193 191 197 198 227 233 194 200 157 173 176 165 213 236 165 145 157 190 150 143 136 117 126 123 124 146 134 141 140 124 102 87 110 109 96 86
181 203 234 180 159 171 139 104 116 228 224 222 184 145 142 158 184 189 181 209 188 127 127 145 161 171 189 172 133 152 68 25 65 84 94 132 146 145 131 134 128 95 93
221 210 216 201 199 165 103 68 24 293 266 244 194 157 130 102 112 135 148 175 159 150 154 170 177 150 205 151 186 183 174 192 4 77 88 129 150 134 126 167 176 186 169
218 202 198 179 190 161 100 83 21 279 257 240 218 180 164 135 100 86 87 80 105 161 175 177 196 200 208 202 186 170 174 176 274 258 132 175 99 110 138 148 163 172 184
202 181 190 177 171 139 126 100 335 311 273 212 197 240 258 176 150 145 126 86 45 18 185 180 193 223 210 197 171 172 174 189 220 218 135 198 161 210 195 194 194 190 187
181 190 204 196 185 195 189 221 292 270 283 246 184 213 196 132 140 120 136 139 154 269 230 200 188 212 204 181 183 199 198 190 211 239 135 192 218 226 236 192 200 191 192
192 206 201 195 203 208 197 208 226 245 259 251 231 256 147 132 85 81 106 142 156 266 229 157 150 49 43 89 119 112 154 166 234 250 195 167 211 225 236 213 195 193 193
208 210 225 209 200 193 180 194 213 231 240 236 180 117 101 124 110 90 159 154 200 247 176 140 358 326 334 137 146 164 186 193 210 225 212 167 201 168 271 258 188 199 207
Height
1519 1519 1519 1518 1518 1518 1518 1518 1518 1518 1519 1519 1519 1519 1520 1520 1520 1521 1521 1521 1522 1522 1523 1524 1524 1525 1526 1526 1527 1527 1527 1527 1528 1529 1529 1530 1530 1530 1531 1531 1531 1532 1533
1521 1520 1520 1520 1520 1520 1520 1520 1520 1520 1520 1521 1521 1521 1522 1522 1523 1522 1523 1523 1523 1524 1524 1525 1525 1525 1526 1527 1527 1527 1528 1528 1529 1529 1530 1530 1530 1531 1531 1532 1532 1533 1534
1522 1522 1522 1522 1522 1522 1522 1521 1522 1522 1522 1522 1523 1523 1524 1524 1524 1524 1524 1524 1525 1525 1525 1525 1526 1526 1527 1527 1527 1528 1528 1529 1529 1529 1530 1530 1531 1531 1532 1532 1533 1533 1534
1524 1523 1523 1523 1523 1523 1523 1523 1523 1523 1523 1524 1524 1525 1525 1526 1526 1526 1526 1526 1526 1526 1527 1527 1527 1528 1528 1528 1528 1529 1529 1530 1530 1530 1530 1531 1531 1531 1532 1532 1533 1534 1534
1525 1524 1524 1525 1525 1524 1525 1525 1524 1524 1525 1525 1526 1526 1527 1527 1527 1527 1527 1527 1528 1528 1528 1528 1528 1529 1529 1529 1529 1529 1530 1530 1530 1530 1530 1531 1531 1532 1532 1533 1533 1534 1534
1526 1526 1526 1526 1526 1525 1525 1526 1526 1526 1526 1527 1527 1528 1528 1528 1529 1529 1529 1529 1529 1529 1529 1530 1530 1530 1530 1530 1530 1530 1530 1531 1531 1531 1531 1531 1532 1532 1532 1533 1534 1534 1535
1527 1527 1527 1527 1527 1527 1526 1526 1527 1527 1528 1528 1528 1528 1529 1530 1530 1530 1530 1530 1530 1530 1531 1531 1531 1531 1531 1531 1532 1531 1531 1531 1531 1531 1531 1532 1532 1532 1533 1533 1534 1534 1535
1527 1527 1527 1527 1527 1527 1527 1527 1527 1528 1528 1529 1529 1529 1530 1531 1531 1531 1531 1531 1531 1531 1531 1532 1532 1532 1532 1532 1532 1532 1532 1532 1532 1531 1531 1532 1532 1532 1533 1533 1534 1534 1535
1528 1528 1528 1528 1528 1528 1528 1528 1528 1528 1529 1529 1530 1530 1531 1531 1532 1532 1532 1532 1532 1532 1532 1532 1532 1532 1532 1532 1532 1532 1532 1532 1532 1532 1532 1532 1532 1532 1532 1533 1533 1533 1534
1528 1528 1528 1528 1528 1528 1528 1529 1529 1529 1529 1529 1530 1531 1531 1531 1532 1532 1533 1533 1533 1533 1533 1533 1533 1533 1533 1532 1532 1532 1532 1532 1531 1531 1531 1531 1532 1532 1532 1532 1532 1532 1533
1528 1528 1528 1528 1529 1529 1529 1529 1529 1529 1529 1530 1530 1531 1531 1531 1532 1532 1533 1533 1533 1533 1533 1533 1533 1533 1533 1532 1532 1532 1531 1531 1531 1531 1531 1531 1531 1531 1531 1531 1531 1532 1532
1527 1527 1528 1528 1528 1529 1529 1529 1529 1529 1529 1530 1530 1530 1531 1531 1531 1532 1532 1532 1533 1533 1533 1533 1533 1533 1533 1533 1532 1532 1531 1531 1531 1530 1530 1530 1531 1531 1531 1531 1531 1531 1531
1526 1526 1527 1527 1528 1528 1528 1529 1529 1529 1529 1529 1530 1530 1530 1531 1531 1531 1532 1532 1532 1533 1533 1533 1533 1533 1533 1532 1532 1532 1531 1531 1530 1530 1530 1530 1530 1530 1530 1530 1530 1530 1530
1525 1525 1526 1526 1527 1527 1528 1528 1528 1528 1529 1529 1529 1529 1530 1530 1530 1531 1531 1531 1531 1532 1532 1533 1533 1533 1533 1532 1532 1531 1531 1531 1530 1530 1529 1529 1529 1529 1529 1529 1529 1529 1529
1524 1524 1525 1525 1526 1526 1527 1527 1527 1527 1528 1528 1528 1528 1529 1529 1529 1530 1530 1531 1532 1531 1532 1532 1532 1532 1532 1532 1531 1531 1530 1530 1530 1529 1529 1529 1529 1528 1528 1528 1528 1528 1528
1522 1522 1523 1524 1524 1525 1525 1526 1526 1526 1526 1527 1527 1527 1527 1528 1528 1528 1529 1529 1530 1530 1530 1531 1531 1531 1531 1531 1530 1530 1530 1529 1529 1528 1528 1528 1528 1527 1527 1527 1527 1527 1527
1520 1520 1521 1522 1523 1523 1523 1524 1524 1525 1525 1525 1526 1526 1526 1526 1526 1527 1527 1528 1528 1529 1528 1529 1530 1530 1530 1530 1530 1529 1528 1528 1528 1528 1527 1527 1527 1526 1526 1526 1526 1526 1526
1518 1518 1519 1520 1520 1521 1522 1522 1522 1523 1523 1523 1524 1524 1524 1524 1525 1525 1525 1526 1526 1526 1527 1527 1528 1528 1528 1528 1528 1528 1527 1527 1527 1527 1527 1526 1526 1525 1525 1525 1525 1525 1525
1515 1516 1517 1517 1518 1519 1519 1520 1520 1520 1521 1521 1522 1522 1522 1522 1522 1523 1523 1523 1524 1524 1525 1525 1525 1526 1526 1526 1526 1526 1526 1526 1526 1526 1525 1525 1525 1524 1524 1524 1524 1523 1523
1513 1513 1514 1515 1515 1516 1516 1517 1517 1518 1518 1519 1519 1520 1520 1520 1520 1520 1520 1521 1521 1522 1522 1523 1523 1524 1524 1524 1524 1524 1524 1524 1524 1524 1524 1524 1524 1523 1523 1522 1522 1522 1522
1510 1511 1512 1512 1512 1513 1513 1514 1514 1515 1516 1516 1517 1517 1517 1517 1517 1518 1518 1518 1519 1519 1519 1520 1520 1521 1521 1521 1521 1522 1522 1522 1522 1522 1522 1522 1522 1521 1521 1521 1521 1521 1520
1508 1508 1508 1509 1509 1510 1510 1511 1511 1512 1512 1513 1513 1513 1514 1514 1514 1515 1515 1515 1516 1516 1516 1517 1517 1517 1518 1518 1519 1519 1519 1519 1519 1520 1520 1520 1520 1519 1519 1519 1519 1519 1519
1505 1505 1506 1506 1506 1507 1507 1508 1508 1509 1509 1510 1510 1510 1510 1510 1511 1511 1512 1512 1513 1513 1514 1514 1514 1514 1515 1515 1515 1515 1516 1516 1516 1517 1517 1517 1517 1517 1517 1517 1517 1517 1516
1501 1502 1503 1503 1503 1503 1504 1504 1505 1506 1506 1506 1507 1507 1507 1507 1508 1508 1508 1509 1509 1510 1510 1511 1511 1511 1512 1512 1512 1513 1513 1513 1514 1514 1515 1514 1514 1514 1515 1515 1515 1514 1514
1498 1499 1500 1500 1500 1500 1501 1501 1502 1502 1502 1503 1503 1504 1504 1504 1505 1505 1505 1505 1506 1506 1507 1508 1508 1508 1508 1509 1509 1510 1510 1510 1510 1510 1511 1511 1511 1511 1512 1512 1512 1512 1511
1495 1496 1496 1497 1497 1497 1497 1498 1498 1498 1499 1499 1500 1500 1501 1501 1501 1502 1502 1502 1502 1503 1503 1503 1504 1504 1505 1505 1505 1506 1506 1507 1506 1507 1507 1508 1508 1508 1508 1508 1509 1508 1508